Regional Weather Roundup
Issued by NWS

Home | Current Version | Previous Version | Text Only | Print | Product List | Glossary On
Versions: 1 2 3 4 5 6 7 8 9 10 11 12 13 14 15 16 17 18 19 20 21 22 23 24 25 26 27 28 29 30 31 32 33 34 35 36 37 38 39 40 41 42 43 44 45 46 47 48 49 50
000
ASUS42 KKEY 311210
RWRKEY

FLORIDA REGIONAL WEATHER ROUNDUP FOR THE FLORIDA KEYS
NATIONAL WEATHER SERVICE KEY WEST FLORIDA
700 AM EST SAT JAN 31 2015

...SOUTH FLORIDA AND THE KEYS...

CITY           SKY/WX    TMP DP  RH WIND       PRES   REMARKS
FORT MYERS     CLEAR     48  44  86 NE8       30.21R WCI  44
SW REGIONAL AP CLEAR     49  44  83 NE7       30.22R
NAPLES         CLEAR     52  46  80 NE10      30.20R
MIAMI          PTCLDY    61  50  67 N6        30.18R
WEST KENDALL   CLEAR     56  51  84 N6        30.18R
HOMESTEAD      CLEAR     58  51  78 N8        30.17R
MARATHON       CLEAR     63  56  78 NE12      30.16R
BOCA CHICA NAS CLEAR     63  56  78 NE10      30.17R
KEY WEST INTL  CLEAR     62  58  86 NE12      30.17R

...INTERNATIONAL WEATHER...

CITY           SKY/WX    TMP DP  RH WIND       PRES   REMARKS
NASSAU BAHAMAS PTCLDY    68  57  68 N10       30.16R
CANCUN MEXICO  CLEAR     63  57  82 NE2       30.11R
COZUMEL MEXICO PTCLDY    64  61  88 E6        30.10R

ADJACENT COASTAL WATERS...

STATION/POSITION TIME  SKY/WX   TEMP    WIND        PRES    WAVE
                                AIR SEA DIR/SP/G            HT/PER
                 (UTC)          (F)     (DEG/KT/KT) (MB)    (FT/S)
PULASKI SHOAL LI NOT AVBL
SAND KEY         NOT AVBL
SOMBRERO KEY     NOT AVBL
LONG KEY         NOT AVBL
MOLASSES REEF    NOT AVBL
FOWEY ROCKS      NOT AVBL
Buoy 42080       NOT AVBL

$$


USA.gov is the U.S. government's official web portal to all federal, state and local government web resources and services.